Weather History for Paso Robles, CA

Change the Weather History Date:

Friday, December 7, 2012

  Actual Average Record
Temperature  
Mean Temperature 54 °F 47 °F  
Max Temperature 66 °F 60 °F 76 °F (1979)
Min Temperature 41 °F 34 °F 20 °F (1978)
Degree Days  
Heating Degree Days 11 18  
Month to date heating degree days 59 123  
Since 1 July heating degree days 483 672  
Cooling Degree Days 0 0  
Month to date cooling degree days 0 0  
Year to date cooling degree days 1147 927  
Growing Degree Days 4 (Base 50)    
Moisture  
Dew Point 46 °F    
Average Humidity 76    
Maximum Humidity 100    
Minimum Humidity 52    
Precipitation  
Precipitation 0.00 in 0.05 in 1.22 in (1949)
Month to date precipitation 0.47 0.33  
Year to date precipitation 7.07 11.10  
Since 1 July precipitation 1.20 2.31  
Sea Level Pressure  
Sea Level Pressure 30.08 in    
Wind  
Wind Speed 6 mph (NNE)    
Max Wind Speed 17 mph    
Max Gust Speed 23 mph    
Visibility 5 miles    
Events Fog    
T = Trace of Precipitation, MM = Missing Value Source: NWS Daily Summary

Daily Weather History Graph

Daily Weather History Graph

Search for Another Location

Airport:

Trip Planner

Search our weather history database for the weather conditions in past years. The results will help you decide how hot, cold, wet, or windy it might be!

Date:

Astronomy

Dec. 07, 2012 Rise Set
Actual Time 6:59 AM PST 4:49 PM PST
Civil Twilight 6:31 AM PST 5:17 PM PST
Nautical Twilight 5:59 AM PST 5:49 PM PST
Astronomical Twilight 5:28 AM PST 6:20 PM PST
Moon 12:35 AM PST (12/7) 12:39 PM PST (12/7)
Length of Visible Light 10h 46m
Length of Day
9h 49m
Last Quarter, 37% of the Moon is Illuminated
Dec 7
Last Quarter
Dec 13
New
Dec 19
First Quarter
Dec 28
Full
Jan 4
Last Quarter

Hourly Weather History & Observations

Time (PST) Temp. Windchill Dew Point Humidity Pressure Visibility Wind Dir Wind Speed Gust Speed Precip Events Conditions
12:53 AM 48.0 °F - 46.9 °F 96% 30.07 in 10.0 mi NNW 5.8 mph - N/A   Clear
1:53 AM 46.9 °F - 46.0 °F 97% 30.07 in 9.0 mi North 3.5 mph - N/A   Clear
2:00 AM 46.4 °F 45.2 °F 44.6 °F 93% 30.08 in 6.0 mi NNE 3.5 mph - N/A   Scattered Clouds
2:08 AM 46.4 °F 45.2 °F 46.4 °F 100% 30.08 in 4.0 mi NNE 3.5 mph - N/A   Mostly Cloudy
2:22 AM 46.4 °F 44.3 °F 46.4 °F 100% 30.08 in 1.5 mi North 4.6 mph - N/A   Overcast
2:29 AM 46.4 °F 43.5 °F 46.4 °F 100% 30.08 in 0.2 mi NNW 5.8 mph - N/A Fog Fog
2:53 AM 46.0 °F 43.9 °F 46.0 °F 100% 30.08 in 0.2 mi NNW 4.6 mph - N/A Fog Fog
3:53 AM 46.9 °F - 46.9 °F 100% 30.06 in 0.2 mi North 5.8 mph - N/A Fog Fog
4:53 AM 48.0 °F - 46.9 °F 96% 30.07 in 0.2 mi NNW 6.9 mph - 0.01 in Fog Fog
5:11 AM 48.2 °F - 46.4 °F 93% 30.07 in 0.2 mi NNW 8.1 mph - N/A Fog Fog
5:26 AM 48.2 °F - 46.4 °F 93% 30.08 in 0.5 mi North 6.9 mph - N/A Fog Fog
5:53 AM 46.9 °F - 46.9 °F 100% 30.08 in 1.2 mi North 4.6 mph - N/A   Overcast
6:53 AM 46.9 °F - 46.9 °F 100% 30.10 in 2.0 mi NNW 8.1 mph - N/A   Overcast
7:09 AM 46.4 °F 43.5 °F 46.4 °F 100% 30.10 in 1.2 mi North 5.8 mph - N/A   Overcast
7:18 AM 46.4 °F 43.5 °F 46.4 °F 100% 30.10 in 0.2 mi North 5.8 mph - N/A Fog Fog
7:37 AM 46.4 °F 44.3 °F 46.4 °F 100% 30.10 in 1.0 mi North 4.6 mph - N/A   Mist
7:43 AM 46.4 °F 44.3 °F 46.4 °F 100% 30.11 in 0.2 mi North 4.6 mph - N/A Fog Fog
7:53 AM 46.9 °F - 46.9 °F 100% 30.11 in 0.8 mi NNE 4.6 mph - N/A   Overcast
8:00 AM 46.4 °F 44.3 °F 46.4 °F 100% 30.11 in 2.0 mi North 4.6 mph - N/A   Overcast
8:12 AM 46.4 °F 44.3 °F 46.4 °F 100% 30.11 in 3.0 mi NNE 4.6 mph - N/A   Overcast
8:18 AM 46.4 °F 44.3 °F 46.4 °F 100% 30.11 in 1.8 mi North 4.6 mph - N/A   Overcast
8:31 AM 46.4 °F 44.3 °F 46.4 °F 100% 30.11 in 0.2 mi North 4.6 mph - N/A Fog Fog
8:45 AM 48.2 °F - 46.4 °F 93% 30.11 in 0.8 mi North 5.8 mph - N/A   Mist
8:51 AM 48.2 °F - 48.2 °F 100% 30.12 in 2.0 mi North 4.6 mph - N/A   Overcast
8:53 AM 48.0 °F - 48.0 °F 100% 30.12 in 3.0 mi North 4.6 mph - N/A   Overcast
9:53 AM 48.9 °F - 48.0 °F 97% 30.12 in 9.0 mi NNW 8.1 mph - N/A   Mostly Cloudy
10:16 AM 51.8 °F - 48.2 °F 88% 30.12 in 10.0 mi NNW 5.8 mph - N/A   Scattered Clouds
10:53 AM 55.9 °F - 48.9 °F 77% 30.11 in 10.0 mi North 4.6 mph - N/A   Clear
11:53 AM 61.0 °F - 48.0 °F 62% 30.08 in 10.0 mi Calm Calm - N/A   Clear
12:53 PM 63.0 °F - 46.0 °F 54% 30.05 in 10.0 mi East 6.9 mph - N/A   Clear
1:53 PM 64.0 °F - 46.9 °F 54% 30.02 in 10.0 mi East 6.9 mph 21.9 mph N/A   Clear
2:53 PM 64.0 °F - 46.9 °F 54% 30.02 in 10.0 mi East 10.4 mph 17.3 mph N/A   Clear
3:53 PM 62.1 °F - 46.0 °F 56% 30.03 in 10.0 mi East 13.8 mph - N/A   Clear
5:53 PM 55.0 °F - 45.0 °F 69% 30.05 in 10.0 mi East 10.4 mph - N/A   Clear
6:53 PM 53.1 °F - 45.0 °F 74% 30.07 in 10.0 mi ENE 8.1 mph - N/A   Clear
7:53 PM 50.0 °F - 44.1 °F 80% 30.07 in 10.0 mi East 3.5 mph - N/A   Clear
8:53 PM 48.9 °F - 44.1 °F 83% 30.08 in 10.0 mi East 4.6 mph - N/A   Clear
9:53 PM 45.0 °F 43.5 °F 42.1 °F 90% 30.08 in 10.0 mi NNE 3.5 mph - N/A   Clear
10:53 PM 46.0 °F - 42.1 °F 86% 30.07 in 10.0 mi Calm Calm - N/A   Clear
11:53 PM 42.1 °F 39.2 °F 39.9 °F 92% 30.07 in 10.0 mi ENE 4.6 mph - N/A   Clear